Terminal Aerodrome Forecast
Issued by NWS St Louis, MO

Home | Current Version | Previous Version | Text Only | Print | Product List | Glossary On
Versions: 1 2 3 4 5 6 7 8 9 10 11 12 13 14 15 16 17 18 19 20 21 22 23 24 25 26 27 28 29
000
FTUS43 KLSX 312051 AAA
TAFSTL
TAF AMD
KSTL 312051Z 3121/0124 12008KT P6SM SCT060 BKN120
     FM010900 VRB03KT P6SM VCSH BKN050
     FM011700 27005KT P6SM BKN050=

USA.gov is the U.S. government's official web portal to all federal, state and local government web resources and services.